Погода в Лухе

Россия / Ивановская область     57°00′27″N   42°15′07″E
темп.,
°C
ветер,
м/с
пор.,
м/с
влажн.,
%
обл.,
%
осадки,
мм/ч
давл.,
гПа
погр.,
м
21 апреля, ср
ср2100:00+5вюв71457100 0.0 1018651
03:00+3вюв91777100 1.5 1014836
06:00+1вюв101997100 5.3 1010997
09:00+3юв101991100 5.7 1009842
12:00+7юв101884100 0.0 1007977
15:00+8юв91685100 0.1 10071090
18:00+6ю51094100 1.1 1008797
21:00+4юз3794100 2.6 1010452
22 апреля, чт
чт2200:00+3ююз4991100 0.0 1012415
03:00+3ююз4994100 0.0 1014388
06:00+3ююз4894100 0.0 1015499
09:00+4ююз4895100 0.2 1016668
12:00+6ююз598896 0.2 1017631
15:00+9юз6970100 0.3 10171272
18:00+9юз487229 0.0 1017476
21:00+6ю388845 0.0 1019151
23 апреля, пт
пт2300:00+6ююв4887100 0.0 1019164
03:00+7ююв51187100 0.0 1018294
06:00+6ююв5128887 0.0 1018287
09:00+11ю6107167 0.1 1018538
12:00+15ю795453 0.2 10181544
15:00+15ю6105375 0.4 10171244
18:00+14ююв495712 0.0 1017315
21:00+9юв4117174 0.0 1017212
24 апреля, сб
сб2400:00+9юв5127546 0.0 1015300
03:00+7юв5128074 0.0 1013247
06:00+7юв513805 0.0 1012349
09:00+12юв8126695 0.0 1010948
12:00+14ююв9115655 0.4 10071727
15:00+13ююз6967100 2.8 1005887
18:00+6з6993100 3.2 1006506
21:00+3зсз5997100 8.8 1005541
25 апреля, вс
вс2500:00+4зсз5997100 4.8 1005590
03:00+4з4892100 5.7 1004668
06:00+3зюз51093100 0.2 1004634
09:00+3з61190100 1.4 1005845
12:00+8зюз795682 0.4 10061797
15:00+8зюз8105285 1.1 10061996
18:00+7з69625 0.4 10071248
21:00+2зюз37795 0.4 1009169